Location: Laupheim
(48.2265°N, 9.8829°E)
Time: 18:41:20
(UTC+02:00)

ISS - Pass Details

Date: 14 February 2018
Orbit: 402 x 406 km, 51.6° (Epoch: 20 June)

Event Time Altitude Azimuth Distance (km) Brightness Sun altitude
Rises 18:21:32 0° 283° (WNW) 2,319 1.4 -7.4°
Reaches altitude 10° 18:24:22 10° 256° (WSW) 1,455 0.7 -7.9°
Maximum altitude 18:26:06 14° 224° (SW) 1,250 -0.5 -8.2°
Drops below altitude 10° 18:27:49 10° 192° (SSW) 1,451 -0.7 -8.4°
Sets 18:30:38 0° 165° (SSE) 2,306 -0.1 -8.9°
